sat.trackr.live / text

‹ back to catalog

STARLINK-33567

NORAD 62773 · 2025-015R

PAYLOAD ACTIVE UNKNOWN

§ Identity

Operator
Country
US
Launch date
2025-01-21
Launch site
AFWTR
Launch vehicle
Mass (kg)
RCS (m²)

Purposes: comms

External: N2YO · Heavens-Above · Gunter

§ Orbital elements

Epoch: 2026-09-21T21:13:37.217856Z

Period
93.85 min
Inclination
53.1596°
Eccentricity
0.0001483
Mean motion
15.34402802 rev/d
Perigee alt
461.7 km
Apogee alt
463.7 km
Semi-major
6,840.8 km
B*
5.0029e-4
RAAN
127.2971°
Arg perigee
51.8754°
Mean anomaly
308.2382°
Rev number
9,457

§ Raw data

STARLINK-335671 62773U 25015R   26264.88445854  .00016566  00000+0  50029-3 0  99962 62773  53.1596 127.2971 0001483  51.8754 308.2382 15.34402802 94571

JSON: /api/v1/satellites/62773 · /tle

For live sub-satellite position, see the globe view (requires WebGL).

§ Visibility from observer

Set your observer location to see the next 7 days of passes ≥ 10°. The values pass through the URL so the page stays shareable.

No JS? Fill the form by hand. The geolocation button needs JavaScript.